Powrót do katalogu

COSMOS 1988

GLONASS

AktywnyNawigacjaMEO
NORAD 19750·PAYLOAD·🇷🇺 Russia

Wystrzelony Jan 10, 1989 z Baikonur Cosmodrome

Loading…

Następne Przeloty (najbliższe 24 godziny)

TLE

ŚwieżeSource: Space-Track

Epoka: Sep 12, 2026, 01:22 UTC

1 19750U 89001B   26255.05722066  .00000000  00000-0  00000-0 0  9998
2 19750  65.0014  69.6662 0014921 217.3719 320.2890  2.13101681293137

Śledź COSMOS 1988 w czasie rzeczywistym z AllMySat

Download on the App Store